Zurück zum Katalog

KUIPER-00599

AktivKommunikationLEO
NORAD 69283·PAYLOAD·🇺🇸 United States

Gestartet May 29, 2026 von Vandenberg Space Force Base

Loading…

Nächste Überflüge (nächste 24 Stunden)

TLE

AktuellSource: CelesTrak SupGP

Epoche: Sep 14, 2026, 20:54 UTC

1 69283C 26118S   26257.87123843  .00005055  00000+0  66175-3 0  2573
2 69283  51.9018 358.9994 0000278 136.7283 206.9511 14.79921364    19

Verfolge KUIPER-00599 in Echtzeit mit AllMySat

Download on the App Store